Dewpoint
-28 -28 -28 -28 -27 -27 -28 -28 -27 -27 -27 -27 -27 -27 -27 -28 -28 -27 -27 -27 -27 -27 -27 -27 -27 -27 -27 -26 -26 -26 -26 -25 -25 -25 -25 -24 -23 -23 -23 -22 -21 -21 -21 -22 -22 -24 -28 -30 -29 -29 -30 -30 -29 -28 -28 -25 -23 -22 -20 -18 -19 -20 -20
-27 -28 -28 -28 -27 -28 -28 -28 -29 -28 -28 -28 -28 -28 -28 -28 -28 -27 -27 -27 -27 -27 -27 -27 -27 -27 -27 -27 -26 -26 -26 -26 -25 -25 -24 -24 -24 -24 -24 -23 -23 -22 -22 -23 -24 -25 -26 -28 -29 -30 -30 -29 -28 -29 -29 -28 -28 -28 -25 -23 -23 -25 -24
-27 -28 -28 -28 -28 -29 -29 -29 -29 -29 -29 -28 -28 -28 -28 -28 -28 -27 -28 -27 -28 -28 -27 -26 -26 -26 -27 -27 -26 -26 -26 -26 -26 -25 -24 -24 -24 -23 -24 -24 -24 -23 -23 -23 -25 -26 -26 -27 -27 -29 -31 -29 -28 -28 -26 -26 -28 -28 -28 -26 -23 -22 -21
-27 -28 -28 -29 -29 -30 -30 -29 -29 -29 -29 -29 -29 -29 -29 -29 -28 -28 -28 -28 -28 -28 -28 -27 -26 -27 -27 -26 -26 -26 -26 -26 -26 -26 -25 -25 -25 -24 -24 -24 -24 -23 -23 -23 -24 -25 -25 -24 -24 -26 -28 -27 -26 -27 -26 -26 -27 -28 -29 -30 -27 -25 -23
-27 -28 -28 -29 -29 -30 -30 -30 -30 -30 -30 -30 -30 -30 -29 -29 -29 -29 -29 -29 -28 -27 -27 -26 -26 -26 -26 -25 -25 -25 -26 -25 -25 -25 -25 -25 -25 -24 -24 -24 -24 -23 -23 -23 -23 -23 -23 -23 -23 -24 -26 -26 -26 -27 -27 -27 -28 -29 -30 -32 -32 -32 -30
-28 -29 -29 -29 -29 -30 -30 -30 -30 -30 -30 -30 -30 -30 -30 -30 -30 -29 -28 -28 -27 -27 -26 -26 -26 -26 -25 -25 -25 -25 -25 -25 -25 -25 -25 -25 -25 -24 -24 -24 -24 -23 -23 -23 -23 -23 -23 -23 -23 -23 -25 -26 -26 -26 -26 -27 -28 -28 -29 -31 -32 -33 -34
-29 -29 -30 -30 -30 -30 -30 -30 -30 -30 -30 -30 -30 -30 -30 -29 -28 -27 -27 -27 -27 -26 -26 -26 -25 -25 -25 -25 -25 -25 -25 -25 -25 -25 -25 -25 -25 -25 -24 -24 -24 -24 -23 -23 -23 -23 -23 -23 -23 -23 -25 -26 -25 -25 -25 -26 -25 -26 -27 -29 -31 -33 -35
-30 -30 -30 -30 -30 -30 -30 -30 -30 -30 -30 -30 -30 -30 -28 -27 -26 -25 -26 -26 -26 -26 -25 -25 -25 -25 -25 -26 -26 -26 -26 -25 -25 -25 -25 -25 -25 -25 -24 -24 -24 -24 -24 -24 -23 -23 -23 -23 -23 -23 -24 -25 -24 -24 -25 -26 -25 -25 -26 -26 -26 -27 -28
-30 -30 -30 -30 -30 -30 -30 -30 -30 -30 -30 -30 -29 -27 -26 -26 -26 -26 -25 -25 -25 -25 -25 -25 -25 -26 -26 -26 -26 -26 -26 -26 -26 -25 -25 -26 -26 -24 -24 -24 -24 -24 -24 -24 -24 -23 -23 -23 -23 -23 -23 -24 -23 -23 -25 -25 -24 -24 -24 -23 -23 -23 -24
-30 -30 -30 -29 -29 -29 -29 -29 -30 -30 -30 -29 -27 -26 -26 -26 -26 -25 -25 -25 -25 -25 -25 -25 -26 -26 -26 -26 -26 -26 -26 -26 -26 -25 -25 -25 -25 -24 -24 -24 -24 -24 -24 -24 -24 -23 -23 -23 -23 -22 -23 -23 -24 -24 -24 -23 -23 -23 -23 -23 -23 -23 -24
-30 -29 -29 -29 -29 -29 -29 -29 -30 -30 -30 -28 -26 -25 -25 -25 -24 -24 -24 -24 -25 -25 -25 -26 -26 -26 -25 -25 -25 -25 -25 -25 -25 -24 -24 -24 -24 -23 -24 -24 -24 -24 -24 -24 -24 -23 -23 -23 -22 -23 -23 -23 -23 -23 -22 -22 -22 -22 -22 -22 -22 -22 -23
-30 -29 -29 -29 -29 -29 -29 -29 -29 -29 -30 -28 -26 -25 -24 -24 -24 -24 -25 -25 -25 -25 -25 -25 -25 -25 -25 -25 -25 -25 -24 -24 -24 -24 -24 -23 -23 -23 -23 -23 -23 -23 -23 -23 -23 -23 -23 -22 -22 -22 -22 -22 -22 -22 -22 -22 -22 -22 -22 -21 -22 -22 -22
-30 -29 -29 -29 -29 -29 -29 -29 -29 -30 -29 -28 -26 -25 -24 -24 -24 -24 -25 -25 -25 -25 -25 -25 -25 -25 -25 -25 -25 -24 -24 -23 -23 -24 -24 -24 -23 -23 -23 -22 -22 -22 -22 -22 -22 -22 -22 -22 -22 -22 -22 -22 -22 -22 -21 -21 -21 -21 -21 -21 -21 -22 -22
-29 -29 -29 -29 -29 -29 -29 -29 -29 -30 -29 -27 -26 -25 -25 -24 -24 -24 -25 -25 -25 -25 -25 -25 -25 -25 -25 -25 -25 -24 -24 -24 -23 -23 -23 -23 -23 -23 -23 -23 -22 -22 -22 -22 -22 -21 -21 -21 -21 -21 -21 -22 -21 -21 -21 -21 -21 -21 -21 -21 -21 -22 -22
-29 -29 -29 -29 -29 -29 -29 -29 -29 -30 -29 -27 -26 -25 -25 -24 -25 -25 -25 -25 -25 -25 -25 -26 -25 -25 -25 -25 -24 -24 -24 -24 -24 -24 -23 -23 -23 -22 -22 -22 -22 -22 -22 -21 -21 -21 -21 -21 -21 -21 -21 -21 -21 -21 -21 -21 -20 -20 -20 -20 -21 -21 -21
-29 -29 -29 -29 -29 -28 -28 -29 -29 -30 -29 -28 -26 -26 -25 -25 -25 -25 -25 -25 -25 -26 -26 -26 -25 -25 -25 -24 -24 -25 -25 -24 -23 -23 -22 -22 -22 -22 -21 -21 -21 -21 -21 -21 -21 -21 -21 -20 -20 -20 -20 -20 -20 -20 -20 -20 -20 -20 -20 -20 -20 -20 -20
-29 -29 -29 -29 -28 -28 -28 -29 -29 -30 -29 -28 -27 -26 -25 -25 -25 -25 -25 -25 -26 -26 -26 -25 -25 -25 -25 -24 -25 -25 -25 -25 -23 -22 -21 -21 -21 -21 -21 -20 -20 -20 -20 -20 -21 -21 -21 -20 -20 -20 -19 -19 -20 -20 -20 -20 -20 -20 -20 -20 -20 -20 -20
-29 -29 -28 -28 -28 -28 -28 -29 -29 -30 -29 -29 -28 -26 -25 -24 -25 -25 -25 -26 -26 -26 -25 -25 -25 -26 -25 -25 -25 -25 -25 -24 -22 -21 -21 -21 -20 -20 -20 -20 -20 -20 -20 -20 -21 -20 -20 -21 -21 -20 -19 -19 -19 -19 -19 -18 -19 -19 -19 -20 -20 -20 -20
-29 -28 -28 -28 -28 -28 -28 -29 -29 -30 -30 -30 -28 -26 -24 -24 -25 -25 -25 -25 -25 -25 -25 -26 -26 -26 -26 -25 -25 -24 -24 -24 -23 -22 -21 -21 -20 -20 -20 -20 -20 -20 -19 -19 -19 -19 -19 -19 -20 -21 -20 -19 -19 -19 -18 -18 -18 -18 -19 -19 -19 -19 -19
-28 -28 -28 -28 -28 -28 -28 -29 -29 -30 -31 -31 -29 -26 -24 -24 -25 -25 -25 -25 -25 -25 -26 -26 -26 -26 -26 -26 -26 -27 -26 -26 -25 -23 -21 -21 -20 -20 -20 -20 -20 -20 -19 -19 -18 -18 -18 -19 -20 -21 -20 -19 -19 -19 -19 -19 -19 -18 -18 -19 -19 -19 -19
-28 -28 -27 -27 -28 -28 -29 -29 -30 -30 -31 -31 -30 -27 -25 -25 -26 -25 -25 -25 -25 -26 -26 -26 -27 -27 -27 -27 -28 -28 -26 -25 -24 -23 -21 -21 -21 -21 -21 -21 -20 -20 -19 -19 -18 -19 -19 -19 -20 -20 -20 -19 -19 -19 -19 -20 -20 -20 -19 -19 -19 -19 -19
-27 -27 -27 -27 -28 -28 -29 -29 -30 -30 -30 -31 -31 -30 -27 -26 -26 -25 -25 -25 -26 -26 -27 -27 -28 -28 -28 -28 -27 -25 -24 -23 -23 -22 -22 -22 -22 -22 -21 -21 -21 -21 -20 -19 -18 -19 -20 -19 -20 -19 -19 -19 -19 -20 -21 -22 -22 -22 -22 -22 -21 -19 -19
-27 -27 -27 -28 -28 -28 -29 -29 -30 -30 -30 -30 -31 -31 -29 -27 -27 -25 -25 -26 -27 -27 -28 -29 -29 -28 -27 -26 -24 -23 -23 -24 -23 -23 -23 -23 -23 -22 -22 -22 -22 -22 -21 -19 -18 -18 -19 -19 -20 -20 -20 -20 -21 -22 -23 -24 -24 -25 -25 -25 -24 -22 -21
-27 -27 -27 -28 -28 -28 -29 -29 -29 -30 -30 -31 -31 -31 -29 -29 -28 -27 -27 -28 -28 -29 -29 -28 -27 -26 -25 -25 -25 -25 -25 -25 -25 -24 -24 -24 -24 -23 -24 -24 -23 -21 -21 -19 -18 -18 -19 -19 -19 -19 -19 -20 -21 -23 -25 -25 -26 -26 -25 -25 -25 -25 -24
-27 -27 -28 -28 -28 -28 -29 -29 -29 -30 -30 -31 -31 -30 -30 -29 -28 -28 -28 -28 -28 -28 -28 -27 -26 -25 -26 -27 -27 -26 -26 -25 -25 -24 -24 -24 -24 -25 -25 -24 -23 -22 -20 -19 -19 -19 -19 -19 -19 -18 -18 -18 -19 -19 -20 -22 -22 -23 -23 -23 -23 -23 -24
-27 -28 -28 -28 -28 -28 -29 -29 -29 -29 -30 -31 -31 -30 -29 -28 -28 -28 -28 -28 -27 -27 -27 -27 -26 -26 -27 -27 -27 -26 -26 -25 -24 -24 -24 -25 -25 -25 -25 -24 -23 -22 -20 -19 -19 -19 -19 -18 -18 -18 -17 -17 -17 -17 -18 -19 -19 -20 -20 -20 -20 -20 -20
-28 -28 -28 -28 -28 -28 -29 -29 -29 -29 -30 -30 -30 -29 -28 -28 -28 -28 -28 -27 -27 -27 -27 -27 -27 -27 -27 -27 -27 -26 -26 -25 -24 -24 -25 -25 -25 -25 -25 -24 -23 -22 -21 -20 -20 -19 -18 -18 -18 -17 -17 -17 -17 -17 -17 -17 -18 -18 -18 -19 -18 -18 -18
-28 -28 -28 -28 -28 -29 -29 -29 -29 -29 -30 -29 -29 -28 -27 -27 -27 -27 -27 -27 -27 -27 -27 -27 -27 -27 -27 -27 -27 -26 -25 -25 -25 -25 -25 -25 -25 -25 -25 -24 -23 -22 -21 -20 -20 -19 -18 -18 -17 -17 -17 -17 -16 -17 -17 -17 -17 -17 -18 -18 -18 -18 -18
-28 -28 -28 -28 -28 -29 -29 -29 -29 -29 -29 -28 -28 -27 -27 -27 -27 -27 -26 -26 -27 -27 -27 -26 -27 -28 -28 -27 -27 -26 -26 -25 -25 -25 -26 -26 -26 -26 -25 -25 -23 -22 -21 -20 -19 -18 -18 -17 -17 -17 -16 -16 -16 -16 -17 -17 -17 -17 -17 -17 -17 -17 -17
-27 -27 -27 -28 -28 -28 -28 -28 -29 -29 -28 -27 -27 -27 -27 -27 -27 -26 -26 -26 -27 -26 -27 -27 -28 -28 -28 -27 -27 -26 -26 -26 -26 -26 -26 -26 -26 -26 -26 -25 -24 -23 -22 -20 -19 -18 -18 -18 -17 -17 -16 -16 -16 -16 -17 -17 -16 -16 -17 -17 -17 -17 -17
-27 -26 -26 -27 -27 -28 -28 -28 -28 -28 -28 -28 -27 -27 -27 -27 -27 -26 -26 -26 -26 -27 -28 -28 -29 -28 -27 -27 -27 -27 -27 -27 -27 -27 -26 -26 -27 -27 -27 -26 -25 -23 -22 -20 -19 -19 -18 -18 -17 -17 -16 -16 -16 -16 -16 -17 -16 -16 -16 -17 -16 -16 -16
-27 -27 -27 -27 -28 -28 -28 -28 -28 -28 -28 -28 -28 -27 -27 -27 -27 -27 -27 -27 -28 -28 -29 -29 -28 -28 -28 -28 -27 -27 -27 -27 -27 -27 -27 -27 -27 -27 -27 -26 -25 -24 -23 -21 -20 -19 -19 -18 -18 -17 -17 -16 -16 -16 -17 -17 -17 -17 -17 -16 -16 -17 -17
-28 -28 -28 -28 -28 -28 -28 -28 -29 -29 -29 -28 -28 -28 -28 -28 -28 -28 -29 -29 -29 -29 -29 -29 -29 -28 -28 -28 -28 -28 -28 -28 -28 -28 -27 -27 -27 -27 -27 -27 -26 -24 -23 -22 -21 -20 -19 -18 -18 -18 -17 -17 -16 -17 -17 -18 -18 -18 -17 -17 -16 -17 -17
-27 -28 -29 -29 -29 -29 -29 -29 -29 -30 -29 -29 -29 -29 -29 -29 -29 -30 -30 -30 -29 -29 -29 -29 -29 -29 -28 -28 -28 -28 -28 -28 -28 -28 -27 -27 -27 -27 -27 -27 -26 -24 -24 -23 -22 -20 -20 -19 -18 -18 -17 -17 -17 -16 -17 -17 -18 -18 -18 -17 -17 -18 -17
-28 -28 -29 -29 -29 -29 -30 -30 -30 -30 -30 -30 -30 -30 -30 -30 -30 -30 -30 -30 -29 -29 -29 -29 -29 -29 -29 -29 -28 -28 -28 -28 -28 -28 -28 -28 -27 -27 -27 -27 -26 -25 -24 -23 -22 -21 -20 -19 -19 -18 -18 -17 -17 -17 -16 -17 -18 -18 -18 -18 -18 -18 -17
-29 -28 -28 -29 -29 -30 -30 -31 -31 -31 -31 -31 -31 -31 -31 -30 -30 -30 -30 -30 -30 -29 -29 -29 -29 -29 -29 -29 -29 -28 -28 -28 -29 -28 -28 -28 -28 -28 -27 -27 -27 -26 -25 -24 -23 -22 -21 -20 -19 -19 -18 -18 -17 -17 -17 -17 -18 -18 -18 -18 -18 -18 -18
Wind_Speed
25 26 27 27 27 27 28 29 29 29 29 30 30 30 30 31 31 32 34 34 35 35 34 35 36 37 36 35 35 36 36 36 35 35 34 33 33 33 32 31 32 36 43 42 37 39 43 42 41 41 40 39 38 38 38 39 40 39 37 35 36 35 33
26 26 27 28 28 29 30 31 31 30 30 30 31 31 32 32 33 34 35 35 36 36 36 36 36 37 37 35 35 36 36 37 36 35 35 34 34 35 35 34 34 36 40 43 42 40 42 42 40 42 42 38 38 38 36 36 37 37 36 36 36 39 38
27 27 27 28 30 31 32 32 32 32 31 31 32 33 34 34 34 35 36 36 37 37 36 37 37 37 37 36 36 37 36 36 36 35 36 37 36 36 37 36 36 38 40 43 44 42 42 41 39 41 42 38 37 37 34 34 35 36 36 35 33 33 33
27 28 28 30 32 33 33 33 33 33 33 33 33 34 35 36 36 36 37 37 37 37 37 37 37 37 37 36 35 36 36 35 35 35 35 36 36 36 37 36 34 35 37 39 41 41 40 37 36 38 40 37 36 36 34 34 35 36 37 38 37 36 35
29 30 31 32 33 34 34 34 34 34 34 35 35 36 37 37 38 37 37 37 37 37 36 36 37 37 35 35 35 35 36 35 34 34 33 34 34 34 35 34 32 32 32 34 37 39 38 35 34 37 38 36 36 38 37 36 37 37 37 38 39 40 40
30 31 32 34 34 35 35 35 35 35 36 36 36 36 37 36 36 36 36 37 37 36 36 36 36 36 35 34 35 35 36 35 34 35 34 34 34 34 34 35 34 33 33 34 37 39 39 38 36 37 39 38 36 37 37 37 37 36 36 36 37 38 39
32 32 33 34 35 35 35 36 36 36 36 36 36 36 35 34 34 35 35 36 37 37 37 37 37 37 36 35 36 36 36 36 36 36 36 36 35 35 36 37 38 38 37 38 39 40 41 41 39 38 41 40 36 35 37 36 36 36 35 34 34 36 37
33 33 33 34 35 35 35 36 36 36 36 36 35 34 33 33 33 35 37 37 37 37 38 38 38 38 38 37 37 37 36 36 36 37 37 36 36 37 38 39 40 39 39 39 40 41 41 40 39 39 40 39 35 34 37 35 33 35 35 32 30 31 31
33 34 34 35 35 35 36 36 36 36 36 35 34 33 33 34 35 37 38 39 39 39 39 40 40 40 40 39 38 37 36 36 35 36 37 37 37 39 40 41 41 40 40 39 39 41 41 38 37 37 37 37 35 35 37 34 31 33 33 29 28 29 28
33 34 34 35 36 36 36 36 36 36 35 33 32 32 33 35 36 36 38 39 40 41 41 41 40 40 40 39 39 39 39 38 38 38 40 40 39 40 41 41 41 40 40 39 39 40 39 36 37 38 37 37 37 35 35 33 31 33 33 29 30 32 30
34 34 34 35 36 37 37 37 36 36 34 31 30 30 31 33 34 35 36 38 40 41 42 41 40 39 39 39 40 41 41 42 42 42 42 42 42 42 42 43 44 43 42 41 41 42 40 39 41 41 39 39 39 36 35 34 33 32 31 29 29 31 30
35 35 35 36 37 37 37 37 37 36 34 31 29 28 29 31 33 35 36 38 40 41 41 40 40 40 41 41 41 42 42 43 43 42 42 43 43 43 43 43 45 47 48 47 45 45 44 43 44 44 42 42 41 39 38 37 36 34 34 33 32 33 32
36 36 36 37 37 38 38 38 38 36 33 31 29 28 29 30 31 34 36 37 38 39 39 39 39 40 41 41 40 40 40 40 40 40 40 42 43 44 44 44 44 46 49 51 50 49 49 49 48 47 47 46 44 41 40 40 39 38 36 36 35 35 34
37 37 37 37 38 38 39 38 37 35 32 30 29 29 28 29 31 34 35 35 35 36 36 35 35 37 38 38 37 36 35 35 36 36 37 39 40 41 42 43 43 44 45 47 50 52 53 54 53 53 53 52 48 45 44 44 43 41 39 39 40 40 38
38 38 38 38 38 39 39 38 36 35 32 29 29 29 28 28 30 32 33 32 32 31 31 30 31 33 35 36 35 34 33 33 35 36 37 39 39 40 41 42 44 44 45 45 47 49 52 54 55 55 56 55 53 52 53 51 48 45 42 42 42 42 41
38 38 39 39 38 38 39 38 36 34 31 29 28 28 28 28 28 29 30 30 29 28 28 28 29 32 34 35 36 36 34 33 34 36 39 41 42 44 45 46 47 47 48 48 48 49 50 51 51 52 52 51 51 52 53 52 51 48 45 43 44 43 42
38 38 39 39 38 37 38 38 36 33 31 29 28 27 26 26 26 28 29 30 29 28 29 29 30 31 33 35 36 36 35 33 33 36 40 42 43 44 45 47 48 48 48 47 48 49 50 50 49 48 47 45 45 45 45 48 50 49 46 46 45 45 44
38 38 38 38 37 36 36 37 36 33 31 29 26 24 23 23 26 30 31 31 31 30 31 31 31 32 32 34 35 35 35 34 35 37 38 39 41 43 44 45 45 45 46 47 47 48 49 49 49 49 49 48 47 45 45 48 52 49 46 46 46 46 45
38 38 38 37 37 35 34 35 35 32 30 27 23 21 20 23 29 32 32 33 33 32 32 33 34 34 33 33 34 34 36 36 34 35 37 40 43 44 45 44 43 42 44 45 46 49 50 49 46 44 46 49 49 48 47 49 51 50 47 46 46 47 44
37 38 38 37 36 34 32 31 32 31 29 25 21 20 21 24 29 31 32 33 33 32 33 35 35 35 33 32 34 35 35 34 33 35 40 43 43 42 43 43 41 41 42 43 45 49 51 50 44 38 39 42 44 45 46 47 48 48 46 46 47 48 45
37 37 37 36 35 34 31 28 28 29 29 26 22 21 21 24 26 29 31 33 32 33 35 36 36 35 33 33 33 32 32 33 36 39 42 42 40 40 41 41 39 40 40 40 41 43 43 43 40 36 36 37 40 41 41 43 45 46 46 46 48 47 45
37 37 38 37 35 35 32 27 26 27 29 29 27 24 22 23 25 26 29 33 34 34 36 36 35 34 32 30 30 32 34 38 40 40 41 40 38 38 39 39 39 40 38 36 35 34 34 35 35 33 33 34 36 36 36 38 42 46 47 49 50 48 46
36 36 37 37 36 34 32 28 26 27 29 31 31 27 24 24 25 24 28 32 34 34 35 35 33 32 31 31 32 35 38 39 38 37 37 37 37 37 38 37 37 35 33 31 30 29 29 32 33 33 33 33 33 33 33 36 39 42 45 48 49 49 49
37 36 37 37 36 34 32 29 28 29 30 33 32 30 28 27 26 25 27 30 32 33 34 33 33 33 33 33 35 37 37 36 35 35 35 35 36 36 35 32 30 29 28 28 27 26 27 29 31 33 34 34 33 33 33 34 36 38 40 43 45 47 48
36 36 36 37 36 35 33 32 31 32 33 33 33 32 32 30 28 27 28 30 32 33 33 33 33 34 36 38 39 39 38 37 36 35 34 33 34 34 32 28 26 25 25 26 26 25 25 28 30 33 34 35 34 35 36 36 36 36 36 38 40 42 43
36 36 36 35 35 35 35 34 34 36 36 35 34 34 33 32 32 31 31 33 34 34 32 31 32 35 40 43 41 38 37 37 36 33 31 31 32 32 29 25 22 21 22 24 25 25 26 27 29 32 34 35 35 37 38 38 36 36 35 35 35 37 39
35 35 35 35 36 36 36 36 37 38 37 35 35 35 34 34 35 35 35 36 35 33 31 32 35 39 42 41 37 34 33 32 31 29 29 29 29 28 25 21 17 17 19 21 23 24 26 28 28 29 32 35 36 37 39 37 36 35 34 34 34 36 38
35 34 34 35 36 36 37 39 39 37 36 35 34 34 34 35 36 36 37 36 34 32 32 36 40 42 40 36 33 32 30 28 26 26 26 27 27 25 22 17 14 14 15 18 20 22 25 27 27 27 29 33 34 36 37 36 34 34 34 34 34 35 37
35 35 36 36 36 37 39 40 38 35 34 34 32 32 32 34 34 35 35 34 32 32 35 39 40 39 35 32 30 29 27 26 25 25 25 25 25 25 22 18 14 13 14 16 17 20 22 23 22 21 24 29 33 35 35 33 32 32 33 34 34 34 35
31 32 34 35 36 36 35 36 36 35 34 32 30 29 29 30 31 31 32 31 31 33 37 38 36 33 30 28 27 26 26 25 26 27 27 26 26 26 25 21 17 14 14 14 15 17 18 17 17 17 17 21 27 30 29 28 29 31 31 32 33 32 32
27 28 28 30 32 33 32 32 33 34 33 30 28 27 28 29 29 29 29 30 32 34 35 33 31 28 25 24 24 24 24 25 25 27 28 28 27 27 26 24 19 16 13 12 13 15 16 15 14 13 12 14 17 20 22 23 25 27 29 30 29 29 28
26 26 25 26 27 28 29 29 29 30 29 27 26 26 26 27 28 28 28 29 31 32 30 28 26 24 22 21 22 23 23 24 25 26 27 28 29 28 27 25 21 17 14 13 13 14 16 14 12 10 10 11 12 12 15 18 19 21 23 24 23 24 25
27 26 27 27 25 24 24 25 26 26 25 24 23 23 23 24 26 26 25 26 28 28 26 23 22 21 20 20 21 22 23 23 24 25 26 27 28 28 26 24 21 17 15 14 13 14 15 14 11 9 8 9 10 10 11 13 14 16 17 18 19 20 21
29 29 29 30 28 26 25 25 25 24 24 22 19 19 22 26 28 26 24 23 24 24 23 21 20 20 19 19 20 21 22 23 24 24 25 26 26 26 25 23 20 18 16 15 13 13 13 13 11 8 6 7 10 12 12 12 13 14 15 17 18 19 19
34 32 31 32 31 30 27 26 26 26 24 21 19 20 24 28 28 24 22 21 21 21 21 21 20 20 20 19 19 20 21 23 23 24 25 25 26 25 23 22 21 19 17 16 14 13 13 13 11 9 7 7 9 12 14 15 14 14 15 16 17 18 18
37 35 33 32 32 30 29 27 27 27 24 20 18 21 24 25 24 22 21 20 19 20 21 20 20 20 20 19 19 19 20 21 22 23 24 24 25 24 23 22 21 21 19 17 14 13 12 12 12 11 9 8 8 10 13 15 15 14 15 15 16 17 18
Wind_Direction
304 306 308 309 308 307 306 304 302 301 300 297 296 295 294 294 294 293 293 294 292 291 290 288 287 286 285 284 282 281 280 278 277 275 273 271 269 267 265 264 265 268 272 273 272 273 274 274 275 275 274 272 270 265 258 254 252 251 250 250 254 257 258
302 304 306 307 305 304 304 303 302 301 300 298 297 296 295 294 294 294 293 293 292 292 291 289 288 287 287 284 281 280 278 277 277 276 274 272 270 268 265 262 262 265 270 274 275 275 275 275 276 276 275 275 274 272 269 263 259 256 255 255 258 261 261
302 303 304 304 304 304 305 304 304 304 302 300 299 298 297 296 295 295 294 293 293 292 291 289 287 287 287 286 282 280 278 276 274 272 271 271 269 268 267 265 263 263 267 271 274 275 276 276 277 276 276 277 277 276 274 269 264 260 257 255 255 257 259
305 305 305 305 305 306 305 305 304 304 303 302 301 299 298 298 298 297 296 295 294 294 292 289 287 287 287 286 283 282 280 278 276 273 270 270 269 267 267 267 266 265 265 269 272 275 275 276 277 276 276 277 276 275 272 269 268 264 259 256 254 254 254
302 305 306 306 307 307 307 306 306 306 305 305 303 302 300 301 301 300 299 297 295 294 293 289 287 287 287 284 282 282 281 279 278 276 274 273 270 268 268 268 267 266 265 266 269 273 275 275 276 276 276 276 276 276 277 275 273 271 268 265 261 257 255
302 305 305 306 307 308 308 309 309 308 308 306 305 304 304 304 304 303 301 299 298 297 294 290 288 288 286 283 281 282 283 282 281 279 278 276 275 272 270 269 268 267 266 265 266 270 273 274 274 275 276 277 277 278 280 281 280 279 277 274 269 265 259
306 306 307 307 308 309 309 310 309 308 308 306 305 305 306 306 305 303 303 302 301 299 296 293 291 289 288 285 284 285 286 286 284 283 281 280 279 277 273 271 271 269 268 267 267 268 270 272 272 273 275 277 277 277 277 278 280 280 279 278 276 273 269
308 308 309 309 310 310 310 310 309 308 307 306 306 308 309 308 305 303 303 303 301 300 298 297 295 293 292 290 289 289 289 288 287 285 283 281 280 278 275 272 271 270 268 267 266 268 270 270 271 271 274 275 274 273 273 274 276 279 280 282 282 279 277
309 310 310 310 311 311 310 310 310 309 309 309 311 312 311 309 306 304 303 302 302 301 300 299 297 295 295 294 293 293 291 290 289 286 283 283 282 278 274 271 269 267 266 265 265 266 268 267 267 269 270 272 270 268 272 275 275 275 277 277 277 275 272
310 311 311 311 311 310 311 311 311 311 312 312 313 311 308 306 305 303 302 301 301 300 299 297 295 293 294 293 292 292 291 290 289 286 284 283 281 276 272 270 268 265 263 262 262 264 264 262 263 265 266 269 270 270 271 272 270 271 273 273 273 273 270
311 311 311 310 310 311 311 311 312 313 314 313 310 306 304 303 302 300 300 300 299 298 296 295 292 291 290 289 288 288 288 287 286 284 281 279 277 273 269 267 266 264 263 261 260 262 263 260 262 265 265 266 269 269 267 267 266 267 270 269 269 272 273
312 312 312 311 311 311 312 312 313 313 313 312 309 304 300 299 299 300 299 298 297 295 294 293 292 292 290 289 288 287 286 285 283 280 277 276 275 272 269 266 264 263 262 261 260 260 260 260 262 265 266 265 267 267 266 265 264 262 263 264 264 268 271
313 313 313 312 312 312 312 313 313 313 314 314 310 304 299 297 299 300 299 297 294 293 293 293 293 293 292 290 289 287 285 283 282 280 278 276 273 269 267 266 265 263 262 261 260 260 261 262 263 263 265 266 266 265 264 263 261 260 260 261 261 263 265
314 314 314 313 313 313 312 313 314 314 315 314 310 304 301 299 299 298 295 294 293 292 293 293 293 292 291 291 290 289 288 286 285 284 282 280 277 273 270 269 268 267 264 261 259 257 259 263 263 263 265 267 265 263 262 261 260 259 259 259 261 263 263
315 315 314 314 314 313 313 313 314 315 315 313 310 305 302 300 297 294 292 294 296 295 295 295 295 295 295 297 297 296 294 291 287 286 286 284 282 281 279 276 275 275 273 269 265 261 259 260 261 262 264 265 264 261 261 261 260 260 261 261 264 264 262
315 315 314 314 315 314 314 314 315 316 316 314 311 307 303 299 297 297 297 299 301 301 299 300 301 301 300 299 298 297 296 292 287 283 282 282 282 283 282 281 281 283 281 279 278 275 271 268 267 266 265 265 264 262 262 263 260 258 258 257 258 259 258
314 314 314 314 315 316 315 315 316 317 317 314 311 308 304 300 302 306 308 308 307 305 305 305 303 300 298 296 295 296 296 296 292 287 283 283 284 284 283 282 283 284 283 282 281 280 279 277 275 271 268 266 264 264 262 259 255 253 252 250 250 253 254
314 314 314 315 316 317 316 315 316 317 315 313 311 307 303 303 308 313 314 313 310 306 306 306 304 301 298 296 296 297 296 296 294 291 288 288 289 289 288 286 285 283 283 282 281 280 279 277 273 271 268 266 264 264 261 254 250 252 250 245 244 248 251
314 314 315 315 316 317 315 314 314 314 313 313 312 307 304 307 311 314 314 312 310 309 307 306 305 304 301 297 295 294 294 294 293 292 294 296 297 296 292 289 288 286 284 283 282 282 280 277 273 269 266 264 262 262 260 254 251 251 248 243 243 246 247
314 314 315 315 316 316 316 314 313 313 315 318 318 310 307 310 313 314 313 312 312 311 307 305 305 304 301 296 294 293 293 293 294 298 301 302 300 296 293 291 291 289 286 283 283 283 279 274 272 271 266 262 260 258 257 255 252 250 247 245 245 244 243
315 314 314 315 316 316 317 316 314 314 318 324 323 315 309 310 313 314 314 313 311 307 305 306 306 304 302 299 297 296 297 298 300 303 303 301 298 296 294 293 291 288 284 282 285 285 278 270 268 268 266 262 259 257 256 253 250 249 249 247 245 243 241
315 315 315 316 317 317 318 319 317 318 321 323 322 319 313 311 313 313 313 311 309 307 306 306 304 302 304 305 303 302 301 302 302 301 299 297 298 298 295 290 286 284 283 285 288 287 277 268 265 264 262 261 258 255 252 248 245 245 247 248 248 246 243
316 315 315 316 316 317 318 319 320 320 319 319 320 321 318 315 313 311 310 310 309 307 307 306 305 308 310 310 306 302 301 300 299 298 297 298 299 299 295 290 286 284 284 287 294 293 281 271 266 262 261 261 259 255 251 247 244 244 245 247 249 249 247
315 314 313 314 315 316 318 318 318 318 317 317 319 321 320 318 315 310 308 307 307 308 309 309 310 309 307 305 304 303 303 302 301 301 301 301 302 302 300 295 290 288 286 285 291 295 290 282 275 268 266 266 264 260 256 252 250 248 247 248 249 250 251
312 312 311 312 313 315 318 317 314 314 316 318 319 319 319 319 316 312 310 309 310 311 310 307 304 303 304 307 310 310 309 308 307 305 304 305 307 308 307 300 292 289 287 284 284 285 285 285 282 278 277 276 272 266 260 256 255 253 251 251 251 251 252
309 310 309 311 313 315 316 314 311 310 314 317 319 319 320 319 317 316 315 314 315 313 308 302 300 302 306 310 312 311 309 308 306 305 305 307 310 312 309 303 295 289 283 280 280 281 280 281 282 282 281 278 272 265 260 257 255 254 253 253 252 251 251
307 309 310 311 313 314 312 309 308 309 311 315 317 318 319 318 317 317 317 316 318 316 310 303 302 304 307 309 309 308 306 305 305 305 307 311 315 315 313 308 300 291 284 280 282 285 284 283 286 286 280 273 265 260 258 256 252 250 252 252 251 248 248
307 311 313 312 311 310 307 305 306 306 308 313 316 316 316 315 314 315 315 316 316 313 305 301 303 306 307 308 308 306 307 309 310 311 315 321 323 323 322 317 306 292 283 281 283 284 282 284 287 284 275 267 260 256 255 252 247 246 247 248 246 243 242
306 308 310 308 305 303 303 303 303 304 306 310 312 311 309 309 309 309 309 310 309 304 300 301 305 307 309 309 308 308 312 317 320 321 324 328 332 334 335 334 326 308 291 286 287 286 286 291 294 288 275 264 254 250 251 250 246 245 245 243 241 239 239
301 302 302 300 299 300 301 300 300 301 304 305 305 304 302 301 301 302 303 303 301 298 299 303 307 308 309 310 311 313 318 324 328 331 332 333 337 342 344 343 339 327 309 298 293 293 299 307 308 299 282 262 249 245 248 249 248 248 245 241 240 240 239
302 300 298 296 298 301 300 299 300 302 303 303 303 301 299 297 297 296 296 296 296 297 301 305 307 308 311 314 315 318 323 328 332 335 336 336 339 344 347 347 344 336 323 311 303 304 312 317 315 305 282 253 241 240 243 246 247 246 241 238 238 240 243
305 302 300 299 300 301 302 302 303 303 303 304 302 299 297 295 293 292 292 294 296 300 304 307 307 309 314 319 321 323 326 329 333 336 337 338 339 342 347 350 347 341 334 327 318 314 314 315 318 313 285 258 244 241 243 246 246 242 238 238 239 243 249
311 310 308 308 308 308 307 305 303 302 302 300 296 296 300 300 295 295 299 301 301 301 304 307 309 313 319 323 325 327 328 330 334 336 337 338 339 340 344 349 350 345 338 333 326 319 315 316 323 325 301 272 257 251 248 250 253 251 247 244 243 247 251
319 318 316 315 317 319 317 314 313 312 310 306 305 310 309 300 296 298 302 301 299 301 306 311 315 319 322 324 327 329 330 331 334 337 338 338 339 341 344 349 352 350 344 336 327 318 315 318 323 324 308 279 268 266 263 260 261 259 254 250 248 249 251
320 321 319 318 319 322 323 323 322 322 322 323 326 321 306 296 296 302 303 300 301 304 308 313 319 323 324 325 327 330 331 333 335 337 338 338 340 342 346 350 355 355 350 343 334 322 315 317 317 314 302 280 268 269 271 272 273 268 262 258 252 248 250
316 320 320 319 319 321 323 324 324 324 325 325 320 311 303 300 305 308 306 305 308 309 310 314 318 322 324 325 326 329 331 333 335 336 337 339 340 342 346 351 355 354 351 348 344 332 318 309 305 305 303 285 260 256 264 273 279 278 272 266 257 249 250
Height
1468 1466 1464 1462 1461 1459 1458 1456 1454 1453 1452 1449 1447 1446 1444 1443 1441 1440 1437 1436 1434 1433 1432 1430 1428 1426 1426 1426 1424 1422 1421 1420 1419 1418 1418 1417 1416 1415 1415 1414 1413 1407 1399 1398 1402 1400 1398 1400 1400 1399 1399 1399 1399 1400 1401 1402 1402 1403 1403 1403 1403 1403 1404
1464 1463 1461 1459 1457 1456 1454 1452 1451 1449 1448 1446 1443 1442 1440 1438 1437 1435 1433 1431 1429 1428 1427 1425 1423 1421 1420 1420 1419 1417 1416 1415 1415 1414 1412 1412 1411 1409 1409 1409 1408 1405 1399 1394 1395 1396 1394 1395 1396 1393 1393 1395 1393 1393 1395 1395 1396 1397 1398 1398 1398 1398 1399
1461 1459 1458 1456 1454 1452 1450 1448 1447 1445 1444 1442 1439 1437 1435 1434 1432 1430 1428 1426 1424 1423 1422 1420 1418 1416 1415 1415 1414 1412 1411 1410 1409 1409 1407 1406 1406 1404 1403 1404 1403 1401 1397 1392 1390 1391 1389 1389 1390 1388 1388 1389 1389 1388 1389 1389 1389 1391 1392 1392 1393 1393 1394
1458 1456 1454 1452 1450 1448 1446 1445 1443 1441 1439 1437 1435 1433 1431 1429 1427 1426 1423 1421 1420 1418 1417 1415 1413 1411 1410 1410 1408 1406 1405 1405 1404 1403 1402 1401 1400 1400 1398 1398 1398 1396 1394 1391 1387 1385 1385 1385 1385 1384 1383 1384 1384 1383 1383 1383 1383 1384 1385 1386 1387 1387 1388
1455 1453 1450 1448 1446 1444 1442 1440 1439 1437 1435 1433 1431 1429 1427 1425 1423 1421 1419 1417 1415 1413 1411 1410 1408 1406 1406 1404 1403 1401 1400 1399 1398 1398 1397 1396 1395 1395 1393 1393 1392 1391 1390 1388 1384 1381 1381 1381 1381 1379 1378 1379 1379 1377 1377 1377 1377 1378 1378 1379 1380 1381 1382
1452 1449 1447 1445 1442 1440 1438 1436 1434 1432 1430 1429 1427 1425 1422 1420 1418 1416 1414 1412 1410 1408 1406 1405 1403 1401 1401 1399 1398 1396 1395 1394 1394 1393 1392 1391 1390 1390 1389 1388 1387 1386 1386 1384 1381 1378 1377 1376 1377 1375 1373 1374 1375 1374 1372 1372 1371 1372 1373 1373 1374 1374 1376
1448 1446 1443 1441 1438 1436 1434 1432 1430 1428 1426 1424 1422 1420 1418 1416 1413 1411 1409 1407 1405 1403 1401 1399 1398 1396 1395 1395 1393 1392 1391 1390 1389 1388 1387 1386 1385 1384 1384 1382 1381 1381 1380 1379 1377 1375 1373 1372 1372 1371 1369 1369 1371 1371 1368 1368 1367 1366 1367 1368 1368 1368 1369
1444 1441 1439 1437 1435 1432 1430 1428 1426 1424 1422 1420 1418 1416 1413 1411 1409 1406 1403 1401 1399 1398 1396 1394 1393 1391 1390 1389 1388 1387 1386 1385 1384 1383 1381 1380 1380 1379 1378 1377 1376 1375 1375 1374 1372 1370 1368 1367 1367 1366 1365 1365 1366 1365 1363 1364 1364 1361 1361 1363 1363 1363 1364
1440 1437 1435 1433 1430 1428 1426 1424 1422 1420 1418 1415 1413 1411 1408 1406 1404 1401 1398 1396 1394 1392 1390 1388 1387 1385 1384 1384 1383 1382 1381 1380 1379 1378 1376 1374 1374 1374 1373 1372 1372 1371 1370 1369 1367 1365 1364 1364 1362 1361 1360 1360 1361 1360 1359 1360 1361 1358 1357 1359 1359 1358 1360
1436 1433 1431 1428 1426 1424 1422 1419 1417 1415 1413 1411 1409 1407 1404 1402 1399 1397 1394 1391 1389 1386 1385 1383 1381 1380 1379 1378 1376 1375 1375 1374 1373 1372 1370 1369 1369 1368 1368 1367 1366 1366 1365 1364 1362 1360 1360 1359 1356 1356 1356 1355 1355 1356 1356 1356 1356 1354 1354 1356 1354 1352 1354
1431 1429 1427 1424 1421 1419 1417 1415 1413 1411 1409 1408 1406 1404 1402 1399 1396 1393 1391 1388 1385 1382 1380 1378 1377 1375 1374 1373 1371 1370 1368 1367 1366 1366 1365 1364 1363 1363 1363 1362 1361 1359 1359 1358 1357 1355 1355 1354 1351 1350 1351 1350 1350 1351 1351 1351 1351 1351 1350 1351 1350 1347 1348
1427 1425 1423 1420 1417 1415 1412 1410 1408 1407 1405 1403 1402 1400 1398 1395 1392 1389 1387 1384 1382 1379 1376 1374 1372 1371 1369 1368 1367 1365 1363 1362 1361 1360 1360 1359 1358 1358 1357 1357 1355 1353 1352 1352 1351 1349 1349 1348 1346 1345 1345 1345 1345 1346 1346 1346 1346 1346 1346 1346 1345 1343 1343
1423 1420 1418 1415 1413 1410 1407 1405 1403 1402 1400 1399 1397 1395 1394 1391 1388 1385 1382 1380 1377 1374 1372 1370 1368 1366 1364 1363 1361 1360 1358 1357 1356 1355 1354 1353 1352 1351 1351 1350 1349 1348 1348 1347 1346 1344 1343 1342 1342 1340 1339 1339 1341 1341 1341 1340 1340 1341 1341 1340 1340 1339 1339
1418 1416 1414 1411 1408 1405 1402 1401 1399 1397 1396 1394 1392 1390 1389 1386 1383 1380 1377 1375 1373 1370 1368 1366 1364 1361 1358 1357 1356 1354 1353 1351 1350 1348 1347 1346 1345 1344 1343 1343 1342 1342 1341 1341 1341 1339 1337 1335 1336 1334 1332 1333 1336 1336 1334 1333 1334 1335 1336 1335 1334 1334 1335
1413 1411 1409 1406 1404 1401 1397 1396 1395 1393 1391 1389 1387 1386 1384 1381 1378 1375 1373 1371 1369 1367 1365 1363 1360 1357 1354 1352 1350 1349 1348 1346 1345 1343 1342 1340 1339 1337 1336 1335 1334 1333 1332 1332 1332 1332 1330 1329 1328 1327 1326 1326 1329 1329 1327 1327 1328 1330 1331 1330 1329 1329 1329
1409 1406 1404 1402 1400 1396 1393 1391 1390 1388 1386 1385 1383 1381 1379 1376 1373 1371 1368 1366 1364 1363 1360 1358 1356 1353 1350 1348 1346 1344 1343 1342 1341 1340 1338 1335 1333 1331 1330 1328 1326 1326 1325 1324 1323 1321 1320 1319 1319 1320 1319 1319 1320 1320 1320 1321 1323 1324 1326 1325 1323 1322 1323
1405 1402 1400 1397 1395 1392 1388 1386 1385 1384 1382 1380 1379 1377 1375 1372 1369 1366 1364 1362 1360 1358 1356 1354 1353 1350 1348 1345 1342 1340 1338 1337 1337 1336 1334 1331 1329 1327 1325 1322 1320 1319 1318 1317 1315 1313 1312 1311 1310 1311 1311 1312 1313 1313 1314 1315 1315 1316 1318 1318 1316 1315 1316
1400 1398 1396 1393 1391 1389 1385 1381 1380 1379 1378 1376 1375 1373 1371 1368 1365 1362 1360 1357 1355 1354 1352 1350 1348 1347 1345 1341 1338 1336 1334 1333 1332 1331 1330 1327 1325 1322 1319 1317 1315 1313 1311 1310 1308 1306 1305 1304 1303 1303 1304 1304 1305 1307 1309 1308 1306 1307 1310 1310 1310 1309 1310
1396 1393 1391 1389 1387 1385 1382 1378 1376 1375 1373 1372 1371 1369 1367 1365 1362 1359 1356 1354 1351 1349 1347 1345 1343 1342 1340 1338 1335 1332 1330 1329 1328 1326 1324 1322 1319 1316 1312 1309 1309 1308 1305 1303 1301 1298 1296 1295 1296 1296 1297 1297 1298 1300 1302 1302 1301 1301 1303 1303 1303 1304 1305
1392 1389 1386 1385 1383 1380 1379 1376 1372 1370 1369 1368 1367 1365 1364 1362 1359 1356 1353 1350 1348 1345 1342 1340 1338 1336 1335 1334 1331 1329 1326 1324 1322 1321 1319 1316 1313 1309 1305 1304 1303 1301 1299 1297 1294 1290 1287 1286 1287 1288 1289 1290 1291 1292 1294 1295 1295 1296 1297 1297 1297 1297 1299
1388 1384 1382 1380 1378 1376 1374 1373 1369 1367 1365 1364 1363 1362 1361 1359 1356 1353 1350 1347 1344 1342 1338 1335 1333 1331 1330 1329 1326 1324 1322 1319 1317 1316 1313 1309 1306 1303 1301 1299 1296 1294 1292 1290 1286 1281 1279 1279 1280 1281 1281 1282 1283 1284 1286 1287 1288 1290 1291 1290 1289 1290 1292
1383 1380 1377 1375 1373 1371 1369 1368 1366 1363 1361 1360 1359 1358 1357 1355 1353 1351 1348 1344 1340 1337 1334 1331 1329 1326 1325 1323 1321 1320 1317 1315 1312 1309 1306 1303 1300 1298 1295 1291 1288 1286 1285 1284 1280 1275 1273 1273 1274 1274 1274 1275 1275 1277 1278 1279 1280 1282 1282 1282 1282 1283 1286
1379 1376 1372 1370 1368 1366 1365 1364 1362 1360 1358 1356 1355 1354 1352 1351 1349 1347 1345 1340 1336 1333 1330 1328 1325 1322 1320 1319 1317 1315 1313 1309 1307 1303 1300 1297 1295 1291 1287 1284 1282 1280 1280 1278 1275 1272 1269 1268 1268 1268 1268 1269 1269 1270 1271 1272 1273 1274 1276 1276 1276 1277 1279
1375 1372 1369 1366 1363 1362 1361 1360 1358 1357 1356 1354 1351 1350 1348 1347 1345 1343 1341 1337 1333 1330 1327 1324 1321 1319 1317 1316 1314 1311 1307 1304 1301 1298 1295 1292 1289 1285 1281 1278 1276 1275 1274 1273 1271 1269 1266 1265 1264 1263 1263 1263 1263 1264 1266 1267 1268 1269 1270 1270 1271 1272 1273
1372 1369 1366 1363 1360 1358 1357 1356 1354 1352 1351 1350 1348 1346 1344 1343 1341 1339 1336 1333 1330 1326 1323 1321 1319 1316 1314 1311 1308 1305 1301 1298 1295 1292 1290 1287 1283 1279 1275 1273 1271 1270 1269 1268 1267 1266 1264 1262 1260 1259 1259 1258 1259 1260 1261 1262 1263 1263 1264 1265 1266 1267 1267
1369 1366 1363 1360 1357 1354 1352 1351 1350 1348 1347 1345 1344 1342 1340 1338 1336 1334 1332 1329 1326 1322 1319 1318 1315 1313 1309 1306 1304 1300 1297 1293 1290 1287 1285 1282 1278 1274 1271 1268 1266 1265 1264 1263 1263 1261 1260 1259 1257 1256 1255 1254 1255 1255 1255 1256 1257 1258 1259 1260 1260 1261 1261
1366 1363 1360 1357 1354 1352 1349 1347 1346 1344 1343 1341 1340 1337 1335 1333 1331 1329 1326 1324 1321 1318 1316 1314 1311 1308 1306 1303 1300 1297 1294 1290 1287 1284 1280 1278 1274 1270 1267 1264 1262 1261 1260 1259 1259 1257 1255 1254 1253 1252 1250 1249 1249 1249 1248 1250 1252 1253 1254 1255 1256 1256 1256
1362 1360 1357 1354 1351 1349 1346 1344 1342 1341 1339 1338 1336 1334 1331 1329 1327 1325 1323 1320 1317 1315 1312 1309 1307 1304 1302 1299 1295 1293 1290 1287 1284 1280 1277 1274 1270 1266 1263 1260 1258 1257 1257 1256 1255 1254 1252 1250 1248 1246 1244 1244 1244 1243 1243 1245 1247 1249 1249 1251 1252 1252 1252
1359 1356 1354 1352 1350 1347 1344 1340 1339 1338 1337 1335 1334 1332 1330 1327 1325 1323 1320 1318 1316 1312 1308 1305 1303 1300 1297 1295 1292 1289 1286 1283 1280 1276 1273 1271 1267 1263 1260 1257 1255 1253 1253 1252 1251 1250 1249 1246 1243 1241 1239 1239 1239 1239 1240 1242 1243 1244 1245 1247 1248 1248 1248
1357 1356 1354 1352 1349 1347 1343 1339 1336 1335 1334 1333 1332 1330 1328 1326 1323 1321 1319 1316 1312 1308 1305 1302 1299 1297 1294 1291 1288 1285 1282 1279 1276 1273 1270 1267 1264 1261 1257 1254 1252 1251 1249 1249 1248 1247 1245 1243 1241 1238 1237 1236 1235 1236 1237 1239 1240 1241 1241 1243 1244 1244 1244
1356 1355 1354 1350 1347 1343 1341 1337 1334 1331 1330 1329 1328 1326 1324 1322 1320 1318 1315 1312 1308 1304 1302 1299 1296 1294 1291 1289 1286 1283 1280 1277 1274 1271 1268 1264 1261 1258 1255 1253 1250 1248 1247 1246 1245 1244 1243 1241 1239 1237 1236 1236 1235 1235 1236 1237 1237 1237 1238 1239 1240 1241 1241
1352 1351 1349 1347 1344 1340 1337 1334 1331 1328 1326 1325 1324 1322 1320 1317 1315 1313 1311 1308 1304 1301 1299 1297 1294 1291 1289 1286 1283 1281 1278 1276 1273 1270 1267 1263 1260 1256 1254 1251 1249 1247 1245 1244 1243 1242 1240 1239 1238 1236 1236 1236 1235 1235 1235 1235 1235 1235 1236 1236 1237 1238 1238
1347 1345 1343 1341 1339 1337 1334 1331 1328 1326 1323 1321 1320 1318 1316 1313 1310 1308 1307 1304 1301 1298 1296 1294 1291 1289 1286 1284 1281 1279 1276 1274 1271 1268 1266 1263 1259 1256 1253 1250 1248 1246 1244 1243 1242 1241 1239 1238 1236 1234 1234 1235 1235 1235 1234 1234 1234 1234 1234 1235 1235 1235 1235
1341 1340 1337 1335 1333 1331 1329 1326 1324 1321 1319 1317 1315 1315 1312 1308 1305 1304 1304 1301 1298 1296 1293 1291 1289 1287 1284 1282 1280 1277 1275 1272 1270 1267 1264 1262 1259 1255 1252 1249 1247 1245 1243 1242 1240 1239 1238 1237 1235 1233 1233 1233 1233 1234 1233 1233 1233 1233 1233 1233 1233 1233 1233
1335 1334 1332 1330 1328 1326 1324 1322 1319 1317 1315 1313 1312 1311 1308 1303 1301 1301 1300 1298 1296 1293 1291 1289 1287 1284 1282 1280 1278 1275 1273 1271 1268 1266 1263 1260 1257 1254 1251 1248 1246 1244 1243 1241 1239 1238 1237 1235 1234 1233 1232 1231 1231 1232 1232 1231 1231 1231 1231 1231 1231 1231 1232
1330 1329 1328 1326 1324 1322 1320 1318 1316 1313 1312 1311 1310 1308 1304 1300 1298 1297 1295 1294 1292 1290 1288 1287 1285 1282 1281 1279 1276 1274 1272 1269 1267 1264 1262 1259 1257 1254 1251 1248 1245 1243 1242 1240 1238 1237 1236 1234 1233 1232 1231 1230 1229 1229 1229 1229 1229 1229 1229 1229 1229 1229 1230